一网星座-0721星 (ONEWEB-0721)

导读 | 豆包AI

ONEWEB-0721是英国(发射代码GB)OneWeb星座的一员,于2023年5月20日发射入轨,属于低轨宽带通信卫星。该卫星是OneWeb卫星互联网组网进程中的部署卫星,承担为全球提供高速低延迟互联网接入服务的组网任务,助力OneWeb完成全球卫星通信网络的覆盖搭建,推动天地一体化通信网络建设。

Basic Information
目录编号:
56725
目录名称:
ONEWEB-0721
国际标识:
2023-068R
轨道中心:
EARTH
卫星名称:
一网星座-0721星
卫星全名:
一网星座-0721星 (ONEWEB-0721)
卫星状态:
在轨 (已飞行1076 天)
发射日期:
2023-05-20 UTC
国别 :
英国 (GB)
星等 :
--
Orbit Information
数据来源 国际轨道数据 AOE轨道数据
星历时间 2026-04-30T08:29:40+0800
10小时前
查看轨道信息
2026-04-27T16:00:00+0800
3天前
查看轨道信息
半长轴 7553.452km 7553.453km
偏心率 0.0001973 0.0001733
轨道倾角 86.673° 86.673°
近地点辐角 86.046° 101.034°
升交点赤经 100.891° 101.748°
平近点角 274.090° 72.598°
近地点 1173.824km 1174.006km
远地点 1176.806km 1176.626km
周期 108.887分钟 108.887分钟
每日圈数 13.224663 13.224659
Detailed Information
平衡模式:
三轴稳定
覆盖范围:
全球
运营商:
一网卫星公司
运营商所在国:
英国
制造商(研发单位):
一网卫星公司
制造商所在国:
英国
使用方式:
暂无
Satellite Introduction
OneWeb卫星网络由648颗重约125公斤的微型卫星组成,运行在1200公里的轨道上。 每颗卫星都能够提供至少每秒8千兆位的吞吐量,以使用其高吞吐量的Ku频段有效载荷为家庭和移动平台提供互联网接入。该卫星仍在工作。
2D Orbit Map
3D Orbit Map
Orbit Altitude Analysis Chart
Orbit Inclination Analysis Chart
Orbit Comprehensive Analysis Chart
View Comprehensive Chart